Weather History for KDKB - September, 2013

Change the Weather History Date:

Thursday, September 26, 2013

  Actual Average (KARR) Record (KARR)
Temperature  
Mean Temperature 62 °F 58 °F  
Max Temperature 78 °F 71 °F 85 °F (1999)
Min Temperature 47 °F 46 °F 34 °F (2000)
Degree Days  
Heating Degree Days 2 8  
Month to date heating degree days 94  
Since 1 July heating degree days 118  
Cooling Degree Days 0 1  
Month to date cooling degree days 60  
Year to date cooling degree days 644  
Growing Degree Days 12 (Base 50)    
Moisture  
Dew Point 51 °F    
Average Humidity 73    
Maximum Humidity 92    
Minimum Humidity 34    
Precipitation  
Precipitation 0.00 in 0.14 in 2.04 in (2011)
Month to date precipitation 2.89  
Year to date precipitation 28.09  
Sea Level Pressure  
Sea Level Pressure 30.05 in    
Wind  
Wind Speed 6 mph (East)    
Max Wind Speed 10 mph    
Max Gust Speed -    
Visibility 7 miles    
Events Fog , Rain    
T = Trace of Precipitation, MM = Missing Value Source: NWS Daily Summary

Daily Weather History Graph

Daily Weather History Graph

Search for Another Location

Airport or City:

Trip Planner

Search our weather history database for the weather conditions in past years. The results will help you decide how hot, cold, wet, or windy it might be!

Date:

Astronomy

Sep. 26, 2013 Rise Set
Actual Time 6:46 AM CDT 6:44 PM CDT
Civil Twilight 6:18 AM CDT 7:12 PM CDT
Nautical Twilight 5:46 AM CDT 7:44 PM CDT
Astronomical Twilight 5:13 AM CDT 8:17 PM CDT
Moon 11:38 PM CDT (9/26) 1:43 PM CDT (9/26)
Length of Visible Light 12h 53m
Length of Day
11h 57m
Waning Gibbous, 54% of the Moon is Illuminated
Sep 26
Waning Gibbous
Sep 26
Last Quarter
Oct 4
New
Oct 11
First Quarter
Oct 18
Full

Hourly Weather History & Observations

Time (CDT) Temp. Dew Point Humidity Pressure Visibility Wind Dir Wind Speed Gust Speed Precip Events Conditions
12:15 AM 50.9 °F 48.4 °F 91% 29.98 in 5.0 mi NE 4.6 mph - N/A   Clear
12:35 AM 50.9 °F 48.2 °F 90% 29.98 in 5.0 mi NE 4.6 mph - N/A   Clear
12:55 AM 50.2 °F 47.7 °F 91% 29.98 in 5.0 mi ENE 4.6 mph - N/A   Clear
1:15 AM 50.7 °F 48.2 °F 91% 29.98 in 4.0 mi ENE 4.6 mph - N/A   Clear
1:35 AM 50.4 °F 47.8 °F 91% 29.99 in 3.0 mi ENE 4.6 mph - N/A   Clear
1:55 AM 50.9 °F 48.4 °F 91% 29.99 in 3.0 mi ENE 4.6 mph - N/A   Clear
2:15 AM 50.5 °F 48.0 °F 91% 30.00 in 2.5 mi NE 3.5 mph - N/A   Clear
2:35 AM 50.9 °F 48.4 °F 91% 30.00 in 2.0 mi NE 4.6 mph - N/A   Clear
2:55 AM 50.4 °F 48.0 °F 92% 30.00 in 1.8 mi NE 4.6 mph - N/A   Mist
3:15 AM 49.8 °F 47.5 °F 92% 30.01 in 0.5 mi NE 4.6 mph - N/A Fog Fog
3:35 AM 49.6 °F 47.1 °F 91% 30.01 in 0.8 mi NE 3.5 mph - N/A   Overcast
3:55 AM 50.2 °F 47.7 °F 91% 30.01 in 0.2 mi NE 4.6 mph - N/A Fog Fog
4:15 AM 49.1 °F 46.6 °F 91% 30.01 in 0.2 mi ENE 3.5 mph - N/A Fog Fog
4:35 AM 48.4 °F 45.9 °F 91% 30.02 in 0.2 mi ENE 4.6 mph - N/A Rain Light Rain
4:55 AM 47.8 °F 45.3 °F 91% 30.02 in 0.2 mi East 3.5 mph - N/A Rain Light Rain
5:15 AM 48.2 °F 45.7 °F 91% 30.03 in 0.2 mi East 3.5 mph - N/A Fog Fog
5:35 AM 47.8 °F 45.3 °F 91% 30.03 in 0.2 mi Calm Calm - N/A Fog Fog
5:55 AM 47.5 °F 45.0 °F 91% 30.04 in 0.2 mi ENE 3.5 mph - N/A Fog Fog
6:15 AM 47.7 °F 45.3 °F 92% 30.04 in 0.2 mi ENE 4.6 mph - N/A Fog Fog
6:35 AM 47.5 °F 45.1 °F 92% 30.05 in 0.2 mi ENE 4.6 mph - N/A Fog Fog
6:55 AM 48.6 °F 46.2 °F 92% 30.06 in 0.2 mi East 3.5 mph - N/A Fog Fog
7:15 AM 48.0 °F 45.5 °F 91% 30.06 in 0.5 mi East 5.8 mph - N/A Fog Fog
7:35 AM 50.7 °F 48.2 °F 91% 30.07 in 1.5 mi East 3.5 mph - N/A   Mist
7:55 AM 52.9 °F 50.4 °F 91% 30.07 in 2.0 mi East 4.6 mph - N/A   Clear
8:15 AM 54.5 °F 51.8 °F 91% 30.07 in 3.0 mi East 5.8 mph - N/A   Clear
8:35 AM 56.1 °F 53.4 °F 91% 30.07 in 5.0 mi East 5.8 mph - N/A   Clear
8:55 AM 58.1 °F 55.4 °F 91% 30.08 in 7.0 mi ESE 6.9 mph - N/A   Clear
9:15 AM 60.1 °F 57.4 °F 91% 30.08 in 10.0 mi ESE 6.9 mph - N/A   Clear
9:35 AM 64.0 °F 59.2 °F 84% 30.08 in 10.0 mi SE 8.1 mph - N/A   Clear
9:55 AM 65.8 °F 58.8 °F 78% 30.08 in 10.0 mi SE 8.1 mph - N/A   Clear
10:15 AM 67.5 °F 59.2 °F 75% 30.08 in 10.0 mi ESE 9.2 mph - N/A   Clear
10:35 AM 69.3 °F 58.1 °F 68% 30.08 in 10.0 mi SE 9.2 mph - N/A   Clear
10:55 AM 70.7 °F 57.4 °F 63% 30.08 in 10.0 mi ESE 8.1 mph - N/A   Clear
11:15 AM 71.2 °F 57.4 °F 61% 30.08 in 10.0 mi SE 10.4 mph - N/A   Clear
11:35 AM 72.7 °F 57.2 °F 58% 30.08 in 10.0 mi ESE 9.2 mph - N/A   Clear
12:15 PM 73.4 °F 55.6 °F 54% 30.08 in 10.0 mi SE 6.9 mph - N/A   Clear
12:35 PM 73.8 °F 55.2 °F 52% 30.07 in 10.0 mi SE 6.9 mph - N/A   Clear
12:55 PM 74.7 °F 54.7 °F 50% 30.07 in 10.0 mi East 6.9 mph - N/A   Clear
1:15 PM 75.2 °F 53.8 °F 47% 30.07 in 10.0 mi SE 9.2 mph - N/A   Clear
1:35 PM 75.2 °F 51.4 °F 43% 30.06 in 10.0 mi ESE 5.8 mph - N/A   Clear
1:55 PM 75.7 °F 50.9 °F 42% 30.06 in 10.0 mi ESE 9.2 mph - N/A   Clear
2:15 PM 76.5 °F 49.6 °F 39% 30.06 in 10.0 mi ESE 9.2 mph - N/A   Clear
2:35 PM 77.4 °F 50.2 °F 38% 30.05 in 10.0 mi East 6.9 mph - N/A   Clear
2:55 PM 78.1 °F 47.8 °F 34% 30.05 in 10.0 mi East 6.9 mph - N/A   Clear
3:15 PM 77.4 °F 47.1 °F 34% 30.05 in 10.0 mi East 5.8 mph - N/A   Clear
3:35 PM 78.3 °F 47.7 °F 34% 30.05 in 10.0 mi ESE 4.6 mph - N/A   Clear
3:55 PM 78.3 °F 47.3 °F 34% 30.05 in 10.0 mi ESE 6.9 mph - N/A   Clear
4:15 PM 78.3 °F 47.8 °F 34% 30.04 in 10.0 mi East 6.9 mph - N/A   Clear
4:35 PM 77.7 °F 48.6 °F 36% 30.05 in 10.0 mi ESE 6.9 mph - N/A   Clear
4:55 PM 77.2 °F 47.8 °F 35% 30.05 in 10.0 mi East 8.1 mph - N/A   Clear
5:15 PM 76.3 °F 46.6 °F 35% 30.04 in 10.0 mi East 8.1 mph - N/A   Clear
5:55 PM 73.6 °F 48.9 °F 42% 30.05 in 10.0 mi ESE 5.8 mph - N/A   Clear
6:15 PM 71.4 °F 49.5 °F 46% 30.05 in 10.0 mi ESE 5.8 mph - N/A   Clear
6:35 PM 69.1 °F 50.0 °F 51% 30.05 in 10.0 mi East 5.8 mph - N/A   Clear
6:55 PM 67.5 °F 51.6 °F 57% 30.05 in 10.0 mi East 5.8 mph - N/A   Clear
7:15 PM 64.0 °F 52.5 °F 66% 30.05 in 10.0 mi East 8.1 mph - N/A   Clear
7:35 PM 63.5 °F 54.3 °F 72% 30.06 in 10.0 mi East 8.1 mph - N/A   Clear
7:55 PM 62.2 °F 54.9 °F 77% 30.06 in 10.0 mi East 8.1 mph - N/A   Clear
8:15 PM 60.4 °F 54.5 °F 81% 30.07 in 10.0 mi East 6.9 mph - N/A   Clear
8:35 PM 59.4 °F 54.0 °F 82% 30.07 in 10.0 mi East 8.1 mph - N/A   Clear
8:55 PM 58.3 °F 53.8 °F 85% 30.08 in 10.0 mi East 6.9 mph - N/A   Clear
9:15 PM 58.1 °F 53.6 °F 85% 30.08 in 10.0 mi East 4.6 mph - N/A   Clear
9:35 PM 56.8 °F 52.7 °F 86% 30.09 in 10.0 mi East 5.8 mph - N/A   Clear
9:55 PM 56.3 °F 52.5 °F 87% 30.09 in 10.0 mi East 6.9 mph - N/A   Clear
10:15 PM 57.7 °F 54.1 °F 88% 30.09 in 10.0 mi East 8.1 mph - N/A   Clear
10:35 PM 58.1 °F 54.1 °F 87% 30.09 in 10.0 mi East 9.2 mph - N/A   Clear
10:55 PM 55.6 °F 52.2 °F 88% 30.09 in 7.0 mi East 9.2 mph - N/A   Clear
11:35 PM 55.6 °F 52.3 °F 89% 30.09 in 7.0 mi East 9.2 mph - N/A   Clear
11:55 PM 55.6 °F 52.3 °F 89% 30.09 in 7.0 mi East 9.2 mph - N/A   Clear